Flag for U.S.A. Weather past 2 weeks in Hartford, Connecticut, U.S.A.

Now
80 °F

Partly sunny.


Feels Like: 82 °F
Forecast: 64 / 82 °F
Wind: 10 mph from Northeast

Location: Hartford-Brainard Airport

Current Time: Aug 4, 2015 at 8:59:12 PM

Latest Report: Aug 4, 2015 at 7:53 PM


Visibility: 10 mi

Pressure: 29.84 "Hg

Humidity: 60%

Dew point: 65 °F

Location of HartfordLocation

Historic Weather in Hartford — Graph

°F

Hartford temperature yesterday

Maximum temperature yesterday: 89 °F (at 1:53 PM)
Minimum temperature yesterday: 69 °F (at 5:53 AM)
Average temperature yesterday: 79 °F

Past Weeks' High & Low Weather Summary

 TemperatureHumidityPressure
High94 °F (Jul 29, 3:53 PM)100% (Aug 2, 5:03 AM)30.02 "Hg (Aug 2, 5:03 AM)
Low59 °F (Jul 24, 5:53 AM)31% (Aug 4, 4:53 PM)29.54 "Hg (Jul 21, 7:00 PM)
Average77 °F66%29.86 "Hg
* Reported Jul 20 7:53 PM — Aug 4 7:53 PM, Hartford, Weather by CustomWeather, © 2015

Note: Actual official high and low records may vary slightly from our data, if they occured in-between our weather recording intervals... More about our weather records

Advertising

Hartford weather history for previous 24 hours

 ConditionsComfort  
Time TempWeatherWind HumidityBarometerVisibility
7:53 PM
Tue, Aug 4
80 °FPartly sunny.10 mph60%29.84 "Hg10 mi
6:53 PM81 °FBroken clouds.8 mph58%29.82 "Hg10 mi
5:53 PM82 °FPartly sunny.7 mph55%29.80 "Hg10 mi
4:53 PM90 °FPartly sunny.12 mph31%29.78 "Hg10 mi
3:53 PM89 °FPassing clouds.14 mph35%29.78 "Hg10 mi
2:53 PM90 °FSunny.13 mph38%29.78 "Hg10 mi
1:53 PM88 °FPassing clouds.9 mph43%29.79 "Hg10 mi
12:53 PM85 °FPartly sunny.8 mph51%29.81 "Hg10 mi
11:53 AM84 °FSunny.12 mph53%29.82 "Hg10 mi
10:53 AM81 °FSunny.5 mph60%29.83 "Hg10 mi
9:53 AM78 °FSunny.6 mph69%29.84 "Hg10 mi
8:53 AM75 °FSunny.7 mph79%29.85 "Hg10 mi
7:53 AM74 °FSunny.5 mph79%29.84 "Hg10 mi
6:53 AM74 °FPassing clouds.No wind85%29.81 "Hg10 mi
5:53 AM74 °FLight rain. Partly cloudy.10 mph94%29.81 "Hg8 mi
4:53 AM74 °FPartly cloudy.5 mph97%29.82 "Hg9 mi
3:53 AM74 °FOvercast.5 mph94%29.80 "Hg10 mi
2:53 AM75 °FPassing clouds.5 mph90%29.81 "Hg10 mi
1:53 AM74 °FClear.5 mph91%29.80 "Hg10 mi
12:53 AM75 °FClear.7 mph88%29.80 "Hg10 mi
11:53 PM
Mon, Aug 3
76 °FClear.5 mph82%29.80 "Hg10 mi
10:53 PM76 °FClear.7 mph82%29.79 "Hg10 mi
9:53 PM79 °FClear.12 mph72%29.79 "Hg10 mi
8:53 PM80 °FSunny.12 mph67%29.78 "Hg10 mi
Weather by CustomWeather, © 2015

See weather overviewHow to use our weather pages